EW1884 Weather Reports


Display with metric or nautical units.
time (UTC)temp
F
wind
direction
speed
MPH
gust
MPH
rain 1hr
in
rain 24hr
in
rain mn
in
humidity
%
barometer
mb
20260506205516 39 0 3.0 6.0 0.00 0.12 0.09 83 1014.6
20260506204517 39 0 3.0 5.0 0.00 0.12 0.09 82 1014.5
20260506203516 39 0 3.0 5.0 0.00 0.12 0.09 82 1014.4
20260506202517 39 0 3.0 5.0 0.00 0.12 0.09 82 1014.5
20260506201537 39 0 4.0 6.0 0.00 0.12 0.09 82 1014.5
20260506200516 39 0 2.0 5.0 0.00 0.12 0.09 82 1014.4
20260506195516 39 0 4.0 8.0 0.00 0.12 0.09 82 1014.4
20260506194516 40 0 4.0 6.0 0.00 0.12 0.09 82 1014.5
20260506193515 40 0 4.0 8.0 0.00 0.12 0.09 81 1014.4
20260506192536 40 0 4.0 8.0 0.00 0.12 0.09 82 1014.3
20260506191516 41 0 4.0 8.0 0.00 0.12 0.09 81 1014.2
20260506190515 41 0 4.0 8.0 0.00 0.12 0.09 81 1014.3
20260506185515 41 0 6.0 10.0 0.00 0.12 0.09 81 1014.3
20260506184536 41 0 5.0 8.0 0.00 0.12 0.09 81 1014.1
20260506183537 41 0 5.0 10.0 0.00 0.13 0.09 81 1014.1
20260506182518 42 0 6.0 10.0 0.00 0.14 0.09 81 1014.0
20260506180517 42 0 8.0 13.0 0.00 0.14 0.09 80 1014.0
20260506175518 43 0 7.0 12.0 0.00 0.14 0.09 81 1014.2
20260506174538 42 0 7.0 11.0 0.00 0.14 0.09 81 1014.1
20260506173517 42 0 7.0 11.0 0.00 0.16 0.09 80 1014.1
20260506172517 42 0 8.0 13.0 0.00 0.19 0.09 79 1013.9
20260506171517 42 0 6.0 9.0 0.00 0.20 0.09 77 1013.8
20260506170517 41 0 6.0 11.0 0.00 0.20 0.09 79 1013.8
20260506165557 41 0 6.0 10.0 0.00 0.20 0.09 81 1013.9
20260506164517 40 0 6.0 10.0 0.00 0.20 0.09 83 1013.8
20260506163537 40 0 6.0 10.0 0.00 0.20 0.09 84 1013.9
20260506162517 40 0 7.0 12.0 0.00 0.20 0.09 84 1014.0
20260506161517 40 0 7.0 11.0 0.00 0.20 0.09 84 1013.9
20260506160537 41 0 5.0 9.0 0.00 0.20 0.09 84 1013.9
20260506155517 41 0 7.0 10.0 0.00 0.20 0.09 84 1014.0
20260506154517 41 0 8.0 13.0 0.00 0.20 0.09 83 1013.9
20260506153517 42 0 9.0 14.0 0.00 0.20 0.09 83 1014.1
20260506152517 42 0 10.0 16.0 0.00 0.20 0.09 83 1014.1
20260506151517 43 0 10.0 16.0 0.00 0.20 0.09 83 1014.0
20260506150558 42 0 9.0 15.0 0.00 0.20 0.09 82 1014.0
20260506145517 43 0 8.0 13.0 0.00 0.20 0.09 80 1014.0
20260506144520 42 0 6.0 11.0 0.00 0.24 0.09 80 1013.9
20260506143518 42 0 8.0 13.0 0.00 0.24 0.09 82 1013.9
20260506142517 41 0 10.0 15.0 0.00 0.24 0.09 82 1013.8
20260506141518 40 0 8.0 12.0 0.00 0.24 0.09 85 1013.9
20260506140520 40 0 11.0 16.0 0.00 0.24 0.09 85 1013.9
20260506135519 41 0 12.0 20.0 0.00 0.24 0.09 84 1014.0
20260506134538 43 0 11.0 16.0 0.00 0.24 0.09 84 1014.0
20260506133517 42 0 11.0 18.0 0.00 0.24 0.09 86 1013.9
20260506132518 40 0 11.0 18.0 0.00 0.24 0.09 87 1013.8
20260506131521 40 0 11.0 17.0 0.00 0.24 0.09 87 1013.8
20260506130517 39 0 12.0 18.0 0.00 0.24 0.09 86 1013.9
20260506125537 40 0 12.0 17.0 0.00 0.24 0.09 86 1013.8
20260506124517 40 0 13.0 21.0 0.00 0.24 0.09 86 1013.8
20260506123517 42 0 12.0 20.0 0.00 0.24 0.09 83 1013.8
20260506122516 43 0 12.0 17.0 0.00 0.24 0.09 80 1013.6
20260506121517 42 0 12.0 18.0 0.00 0.24 0.09 80 1013.5
20260506120536 42 0 9.0 16.0 0.00 0.24 0.09 83 1013.6
20260506115537 42 0 8.0 14.0 0.00 0.24 0.09 85 1013.5
20260506114517 42 0 10.0 15.0 0.00 0.25 0.09 86 1013.6
20260506113517 40 0 9.0 13.0 0.00 0.25 0.09 87 1013.6
20260506112520 41 0 9.0 18.0 0.00 0.26 0.09 88 1013.6
20260506111516 40 0 9.0 16.0 0.00 0.26 0.09 89 1013.7
20260506110537 39 0 8.0 13.0 0.00 0.27 0.09 90 1013.7
20260506105516 39 0 9.0 15.0 0.00 0.27 0.09 89 1013.4
20260506104557 39 0 10.0 15.0 0.00 0.27 0.09 89 1013.4
20260506102517 39 0 9.0 15.0 0.00 0.27 0.09 89 1013.4
20260506101519 39 0 11.0 18.0 0.00 0.27 0.09 90 1013.4
20260506100516 39 0 11.0 17.0 0.00 0.27 0.09 89 1013.4
20260506095516 40 0 11.0 16.0 0.00 0.27 0.09 89 1013.1
20260506094516 39 0 8.0 14.0 0.00 0.27 0.09 89 1013.1
20260506093536 38 0 12.0 16.0 0.00 0.27 0.09 89 1013.2
20260506092516 38 0 11.0 16.0 0.00 0.27 0.09 92 1013.2
20260506091516 38 0 13.0 18.0 0.00 0.27 0.09 91 1013.1
20260506090516 38 0 8.0 14.0 0.00 0.27 0.09 93 1013.2
20260506085516 36 0 10.0 15.0 0.00 0.27 0.09 93 1013.2
20260506084516 36 0 6.0 13.0 0.00 0.27 0.09 93 1013.1
20260506083516 36 0 7.0 14.0 0.00 0.27 0.09 92 1013.0
20260506082536 36 0 8.0 13.0 0.00 0.27 0.09 93 1013.0
20260506081516 35 0 9.0 15.0 0.01 0.27 0.09 92 1012.9
20260506080516 35 0 13.0 19.0 0.01 0.27 0.09 92 1012.8
20260506073516 37 0 12.0 16.0 0.01 0.28 0.09 91 1012.6
20260506072516 37 0 12.0 20.0 0.01 0.28 0.09 91 1012.6
20260506071516 36 0 10.0 17.0 0.00 0.27 0.08 91 1012.6
20260506070516 37 0 15.0 22.0 0.00 0.27 0.08 91 1012.4
20260506062516 38 0 14.0 23.0 0.00 0.27 0.08 90 1012.2
20260506061535 38 0 11.0 16.0 0.00 0.27 0.08 90 1012.1
20260506060515 38 0 13.0 18.0 0.00 0.27 0.08 91 1012.1
20260506050538 37 0 13.0 19.0 0.00 0.27 0.08 91 1011.9
20260506044517 37 0 11.0 16.0 0.00 0.27 0.08 91 1012.1
20260506043517 37 0 13.0 20.0 0.00 0.27 0.08 90 1012.0
20260506042517 37 0 12.0 18.0 0.00 0.27 0.08 89 1012.0
20260506041517 37 0 12.0 18.0 0.00 0.27 0.08 89 1012.0
20260506040517 37 0 12.0 17.0 0.00 0.27 0.08 89 1012.0
20260506035517 37 0 10.0 16.0 0.00 0.27 0.08 89 1011.9
20260506034537 37 0 12.0 17.0 0.00 0.27 0.08 89 1011.9
20260506033517 37 0 13.0 20.0 0.00 0.27 0.08 90 1011.7
20260506032517 37 0 12.0 17.0 0.01 0.27 0.08 90 1011.6
20260506031557 37 0 13.0 19.0 0.01 0.28 0.08 90 1011.7
20260506030517 37 0 12.0 19.0 0.01 0.28 0.08 90 1011.7
20260506025517 36 0 13.0 18.0 0.01 0.28 0.08 90 1011.7
20260506024517 37 0 14.0 20.0 0.02 0.28 0.08 89 1011.7
20260506023517 37 0 14.0 21.0 0.04 0.28 0.08 89 1011.5
20260506022517 38 0 12.0 18.0 0.04 0.27 0.07 89 1011.6
20260506021537 37 0 11.0 18.0 0.04 0.27 0.07 89 1011.7
20260506020517 37 0 11.0 20.0 0.04 0.27 0.07 89 1011.8
20260506015517 37 0 12.0 20.0 0.04 0.27 0.07 89 1011.6
20260506014517 37 0 10.0 18.0 0.03 0.26 0.06 90 1011.7
20260506013517 36 0 10.0 18.0 0.01 0.24 0.04 90 1011.8
20260506012517 37 0 9.0 16.0 0.00 0.23 0.03 89 1011.8
20260506011517 38 0 16.0 24.0 0.00 0.23 0.03 88 1011.3
20260506010517 38 0 14.0 24.0 0.01 0.24 0.03 89 1011.2
20260506005537 38 0 14.0 24.0 0.01 0.24 0.03 89 1011.4
20260506004517 37 0 13.0 20.0 0.01 0.24 0.03 89 1011.3
20260506003518 37 0 13.0 21.0 0.01 0.24 0.03 89 1011.3
20260506002517 37 0 12.0 19.0 0.01 0.24 0.03 89 1011.4
20260506001517 36 0 8.0 15.0 0.01 0.24 0.03 89 1011.4
20260506000517 37 0 11.0 20.0 0.00 0.24 0.02 88 1011.6
20260505235517 37 0 12.0 17.0 0.01 0.25 0.02 89 1011.4
20260505234517 37 0 11.0 16.0 0.02 0.26 0.02 89 1011.3
20260505233517 37 0 11.0 16.0 0.02 0.27 0.02 90 1011.4
20260505232517 37 0 10.0 15.0 0.02 0.27 0.02 91 1011.4
20260505231556 36 0 12.0 20.0 0.02 0.27 0.02 92 1011.3
20260505230516 35 0 7.0 17.0 0.02 0.27 0.02 92 1011.5
20260505225517 34 0 4.0 8.0 0.02 0.26 0.02 91 1011.6
20260505224536 35 0 5.0 10.0 0.02 0.25 0.01 90 1011.8
20260505223517 36 0 13.0 19.0 0.04 0.26 0.01 89 1011.9
20260505222518 36 0 10.0 20.0 0.04 0.26 0.01 90 1011.6
20260505221537 36 0 11.0 17.0 0.03 0.26 0.00 91 1011.4
20260505220537 36 0 11.0 16.0 0.03 0.26 0.00 91 1011.4
20260505215516 35 0 13.0 19.0 0.02 0.27 0.26 90 1011.3
20260505214536 36 0 16.0 22.0 0.02 0.28 0.25 88 1011.5
20260505213516 37 0 13.0 19.0 0.00 0.28 0.24 86 1011.3
20260505212538 38 0 13.0 19.0 0.00 0.30 0.24 85 1011.0
20260505211517 39 0 12.0 17.0 0.00 0.32 0.24 84 1011.1
20260505210517 39 0 11.0 17.0 0.00 0.32 0.24 82 1011.2